User: anonymous   Login
Location: Chiroubles
(46.1812°N, 4.6660°E)
Time: 10:52:28
(UTC+00:00)
Language:

Cosmos 1812 - Orbit

View from above orbital plane
View from above orbital plane
View from above satellite
View from above satellite

Ground track
Ground track

The orbit data is extracted from the following two-line orbital elements,

1 17295U 87003A   20299.75487944  .00000979  00000-0  49836-4 0  9991
2 17295  82.5175  17.1277 0003212 173.7992 186.3281 15.15657517844687
Epoch (UTC): 25 October 2020 18:07:01
Eccentricity: 0.0003212
inclination: 82.5175°
perigee height: 517 km
apogee height: 521 km
right ascension of ascending node: 17.1277°
argument of perigee: 173.7992°
revolutions per day: 15.15657517
mean anomaly at epoch: 186.3281°
orbit number at epoch: 84468

The dashed part of the orbit path shows where the satellite is in the earth's shadow,  

DLR